Location: Mainz-Finthen
(49.9906°N, 8.1713°E)
Time: 08:26:16
(UTC+00:00)

N. Korean satellite - Pass Details

Date: 29 November 2022
Orbit: 407 x 442 km, 97.3° (Epoch: 04 February)

Event Time Altitude Azimuth Distance (km) Brightness Sun altitude
Rises 03:37:33 0° 32° (NNE) 2,530 10.7 -31.9°
Maximum altitude 03:42:12 12° 88° (E) 1,528 9.9 -31.1°
Drops below altitude 10° 03:43:33 10° 111° (ESE) 1,632 10.0 -30.9°
Sets 03:46:46 0° 145° (SE) 2,491 10.6 -30.4°
